Weather History for Galax, VA

Change the Weather History Date:

Monday, April 14, 2014

  Actual Average (KBLF) Record (KBLF)
Temperature  
Mean Temperature 60 °F 55 °F  
Max Temperature 64 °F 65 °F 82 °F (2006)
Min Temperature 57 °F 45 °F 26 °F (1962)
Degree Days  
Heating Degree Days 4 11  
Month to date heating degree days 181  
Since 1 July heating degree days 4290  
Cooling Degree Days 0 1  
Month to date cooling degree days 12  
Year to date cooling degree days 16  
Growing Degree Days 10 (Base 50)    
Moisture  
Dew Point 52 °F    
Average Humidity 74    
Maximum Humidity 94    
Minimum Humidity 59    
Precipitation  
Precipitation 0.11 in 0.11 in 0.83 in (1972)
Month to date precipitation 1.50  
Year to date precipitation 10.67  
Snow  
Snow 0.00 in - - ()
Month to date snowfall  
Since 1 July snowfall  
Snow Depth -    
Sea Level Pressure  
Sea Level Pressure 30.00 in    
Wind  
Wind Speed 12 mph (South)    
Max Wind Speed 20 mph    
Max Gust Speed 26 mph    
Visibility 10 miles    
Events Rain    
T = Trace of Precipitation, MM = Missing Value Source: NWS Daily Summary

Daily Weather History Graph

Daily Weather History Graph

Search for Another Location

Airport:

Trip Planner

Search our weather history database for the weather conditions in past years. The results will help you decide how hot, cold, wet, or windy it might be!

Date:

Astronomy

Apr. 14, 2014 Rise Set
Actual Time 6:50 AM EDT 7:56 PM EDT
Civil Twilight 6:24 AM EDT 8:23 PM EDT
Nautical Twilight 5:52 AM EDT 8:55 PM EDT
Astronomical Twilight 5:19 AM EDT 9:28 PM EDT
Moon 7:34 PM EDT (4/14) 6:20 AM EDT (4/14)
Length of Visible Light 13h 59m
Length of Day
13h 06m
Full, 100% of the Moon is Illuminated
Apr 14
Full
Apr 15
Full
Apr 22
Last Quarter
Apr 29
New
May 6
First Quarter

Hourly Weather History & Observations

Time (EDT) Temp. Dew Point Humidity Pressure Visibility Wind Dir Wind Speed Gust Speed Precip Events Conditions
12:15 AM 62.6 °F 50.0 °F 63% 30.11 in 10.0 mi South 15.0 mph 20.7 mph N/A   Clear
12:35 AM 62.6 °F 50.0 °F 63% 30.11 in 10.0 mi South 15.0 mph 19.6 mph N/A   Clear
12:55 AM 62.6 °F 50.0 °F 63% 30.10 in 10.0 mi South 13.8 mph 18.4 mph N/A   Clear
1:15 AM 62.6 °F 50.0 °F 63% 30.10 in 10.0 mi South 12.7 mph 18.4 mph N/A   Clear
1:35 AM 62.6 °F 50.0 °F 63% 30.09 in 10.0 mi South 9.2 mph 18.4 mph N/A   Clear
1:55 AM 60.8 °F 51.8 °F 72% 30.09 in 10.0 mi South 9.2 mph 16.1 mph N/A   Clear
2:15 AM 60.8 °F 50.0 °F 68% 30.08 in 10.0 mi South 10.4 mph 19.6 mph N/A   Clear
2:35 AM 60.8 °F 51.8 °F 72% 30.07 in 10.0 mi South 10.4 mph 19.6 mph N/A   Clear
2:55 AM 60.8 °F 51.8 °F 72% 30.07 in 10.0 mi South 11.5 mph 18.4 mph N/A   Clear
3:15 AM 59.0 °F 50.0 °F 72% 30.06 in 10.0 mi South 10.4 mph 16.1 mph N/A   Clear
3:35 AM 59.0 °F 50.0 °F 72% 30.06 in 10.0 mi South 11.5 mph 18.4 mph N/A   Clear
3:55 AM 59.0 °F 50.0 °F 72% 30.06 in 10.0 mi South 11.5 mph 19.6 mph N/A   Clear
4:15 AM 59.0 °F 50.0 °F 72% 30.06 in 10.0 mi South 9.2 mph - N/A   Clear
4:35 AM 57.2 °F 50.0 °F 77% 30.05 in 10.0 mi South 10.4 mph 19.6 mph N/A   Clear
4:55 AM 57.2 °F 50.0 °F 77% 30.04 in 10.0 mi South 11.5 mph 18.4 mph N/A   Clear
5:15 AM 57.2 °F 50.0 °F 77% 30.03 in 10.0 mi South 12.7 mph 19.6 mph N/A   Clear
5:35 AM 57.2 °F 48.2 °F 72% 30.01 in 10.0 mi South 12.7 mph 21.9 mph N/A   Clear
5:55 AM 57.2 °F 48.2 °F 72% 30.02 in 10.0 mi South 15.0 mph 26.5 mph N/A   Clear
6:15 AM 57.2 °F 48.2 °F 72% 30.02 in 10.0 mi South 12.7 mph 20.7 mph N/A   Scattered Clouds
6:35 AM 57.2 °F 48.2 °F 72% 30.03 in 10.0 mi South 12.7 mph 26.5 mph N/A   Mostly Cloudy
6:55 AM 57.2 °F 50.0 °F 77% 30.04 in 10.0 mi South 13.8 mph 21.9 mph N/A   Mostly Cloudy
7:15 AM 57.2 °F 50.0 °F 77% 30.04 in 10.0 mi South 13.8 mph 21.9 mph N/A   Mostly Cloudy
7:35 AM 57.2 °F 50.0 °F 77% 30.04 in 10.0 mi South 11.5 mph 19.6 mph N/A   Scattered Clouds
7:55 AM 57.2 °F 50.0 °F 77% 30.05 in 10.0 mi South 10.4 mph 17.3 mph N/A   Mostly Cloudy
8:15 AM 57.2 °F 50.0 °F 77% 30.05 in 10.0 mi South 10.4 mph 21.9 mph N/A   Overcast
8:35 AM 57.2 °F 50.0 °F 77% 30.05 in 10.0 mi South 8.1 mph 18.4 mph N/A   Mostly Cloudy
8:55 AM 57.2 °F 51.8 °F 82% 30.04 in 10.0 mi South 11.5 mph 23.0 mph N/A   Overcast
9:15 AM 57.2 °F 51.8 °F 82% 30.04 in 10.0 mi South 12.7 mph 19.6 mph N/A   Mostly Cloudy
9:35 AM 57.2 °F 51.8 °F 82% 30.05 in 10.0 mi South 10.4 mph 20.7 mph N/A   Mostly Cloudy
9:55 AM 59.0 °F 51.8 °F 77% 30.05 in 10.0 mi South 12.7 mph 19.6 mph N/A   Mostly Cloudy
10:15 AM 57.2 °F 51.8 °F 82% 30.06 in 10.0 mi South 13.8 mph 18.4 mph N/A   Mostly Cloudy
10:35 AM 57.2 °F 51.8 °F 82% 30.06 in 10.0 mi South 12.7 mph 20.7 mph N/A   Overcast
10:55 AM 59.0 °F 51.8 °F 77% 30.05 in 10.0 mi South 11.5 mph 17.3 mph N/A   Mostly Cloudy
11:15 AM 60.8 °F 53.6 °F 77% 30.05 in 10.0 mi South 13.8 mph 23.0 mph N/A   Scattered Clouds
11:35 AM 60.8 °F 53.6 °F 77% 30.06 in 10.0 mi South 15.0 mph 20.7 mph N/A   Mostly Cloudy
11:55 AM 62.6 °F 53.6 °F 72% 30.06 in 10.0 mi SSW 16.1 mph 21.9 mph N/A   Scattered Clouds
12:15 PM 62.6 °F 51.8 °F 68% 30.05 in 10.0 mi South 17.3 mph 25.3 mph N/A   Scattered Clouds
12:35 PM 62.6 °F 51.8 °F 68% 30.05 in 10.0 mi South 19.6 mph 26.5 mph N/A   Scattered Clouds
12:55 PM 62.6 °F 51.8 °F 68% 30.04 in 10.0 mi South 10.4 mph 24.2 mph N/A   Scattered Clouds
1:15 PM 62.6 °F 51.8 °F 68% 30.03 in 10.0 mi SSW 12.7 mph 18.4 mph N/A   Scattered Clouds
1:35 PM 62.6 °F 51.8 °F 68% 30.02 in 10.0 mi South 8.1 mph 17.3 mph N/A   Mostly Cloudy
1:55 PM 64.4 °F 50.0 °F 59% 30.02 in 10.0 mi South 13.8 mph 20.7 mph N/A   Mostly Cloudy
2:15 PM 64.4 °F 51.8 °F 64% 30.00 in 10.0 mi South 11.5 mph 21.9 mph N/A   Mostly Cloudy
2:35 PM 64.4 °F 50.0 °F 59% 30.00 in 10.0 mi South 12.7 mph 21.9 mph N/A   Scattered Clouds
2:55 PM 64.4 °F 50.0 °F 59% 30.00 in 10.0 mi South 13.8 mph 23.0 mph N/A   Scattered Clouds
3:15 PM 64.4 °F 51.8 °F 64% 29.99 in 10.0 mi South 8.1 mph 17.3 mph N/A   Mostly Cloudy
3:35 PM 64.4 °F 51.8 °F 64% 29.98 in 10.0 mi South 12.7 mph 23.0 mph N/A   Mostly Cloudy
3:55 PM 64.4 °F 51.8 °F 64% 29.97 in 10.0 mi South 6.9 mph 19.6 mph N/A   Scattered Clouds
4:15 PM 64.4 °F 51.8 °F 64% 29.96 in 10.0 mi South 12.7 mph 18.4 mph N/A   Mostly Cloudy
4:35 PM 64.4 °F 51.8 °F 64% 29.96 in 10.0 mi South 6.9 mph 18.4 mph N/A   Mostly Cloudy
4:55 PM 64.4 °F 51.8 °F 64% 29.96 in 10.0 mi South 10.4 mph - N/A Rain Light Rain
5:15 PM 62.6 °F 53.6 °F 72% 29.95 in 10.0 mi South 6.9 mph 19.6 mph N/A Rain Light Rain
5:35 PM 62.6 °F 53.6 °F 72% 29.95 in 10.0 mi South 6.9 mph - N/A   Light Drizzle
5:55 PM 60.8 °F 53.6 °F 77% 29.94 in 10.0 mi South 8.1 mph - N/A Rain Rain
6:15 PM 60.8 °F 53.6 °F 77% 29.93 in 10.0 mi South 4.6 mph - 0.01 in Rain Light Rain
6:35 PM 60.8 °F 53.6 °F 77% 29.93 in 7.0 mi South 9.2 mph - 0.03 in Rain Light Rain
6:55 PM 59.0 °F 53.6 °F 82% 29.91 in 10.0 mi SSE 8.1 mph - 0.01 in Rain Light Rain
7:15 PM 59.0 °F 53.6 °F 82% 29.91 in 10.0 mi South 8.1 mph - 0.03 in Rain Rain
7:35 PM 59.0 °F 55.4 °F 88% 29.91 in 10.0 mi SSE 10.4 mph - 0.04 in Rain Rain
7:55 PM 59.0 °F 55.4 °F 88% 29.90 in 10.0 mi SSE 9.2 mph - N/A Rain Light Rain
8:15 PM 59.0 °F 53.6 °F 82% 29.90 in 10.0 mi SSE 9.2 mph 16.1 mph 0.01 in   Overcast
8:35 PM 59.0 °F 53.6 °F 82% 29.89 in 10.0 mi South 8.1 mph - 0.01 in   Overcast
8:55 PM 59.0 °F 53.6 °F 82% 29.90 in 10.0 mi South 8.1 mph - N/A   Overcast
9:15 PM 59.0 °F 53.6 °F 82% 29.89 in 7.0 mi South 8.1 mph - N/A Rain Light Rain
9:35 PM 59.0 °F 53.6 °F 82% 29.90 in 10.0 mi South 8.1 mph - 0.01 in   Overcast
9:55 PM 57.2 °F 53.6 °F 88% 29.89 in 10.0 mi South 9.2 mph 16.1 mph 0.01 in   Overcast
10:15 PM 59.0 °F 53.6 °F 82% 29.88 in 10.0 mi South 6.9 mph - 0.01 in   Overcast
10:35 PM 59.0 °F 53.6 °F 82% 29.88 in 10.0 mi South 6.9 mph - 0.01 in   Light Drizzle
10:55 PM 59.0 °F 55.4 °F 88% 29.87 in 10.0 mi South 5.8 mph - N/A Rain Rain
11:15 PM 59.0 °F 53.6 °F 82% 29.87 in 7.0 mi South 6.9 mph - N/A   Drizzle
11:35 PM 57.2 °F 55.4 °F 94% 29.86 in 10.0 mi South 5.8 mph - 0.01 in   Drizzle
11:55 PM 57.2 °F 55.4 °F 94% 29.84 in 10.0 mi SSE 8.1 mph - N/A   Overcast